Orbital Elements at Epoch 2459200.5 (2020-Dec-17.0) TDB
Reference: JPL 16 (heliocentric ecliptic J2000)
Element | Value | Uncertainty (1-sigma) | Units |
e | .1223806352338419 | 4.6968e-08 | |
a | 2.395507336570426 | 1.2263e-08 | au |
q | 2.102343627013608 | 1.0995e-07 | au |
i | 2.633060458868778 | 4.7483e-06 | deg |
node | 354.9449582880243 | 9.4293e-05 | deg |
peri | 170.5810207533857 | 9.5816e-05 | deg |
M | 173.482326340156 | 1.7902e-05 | deg |
tp | 2458547.899471309173 (2019-Mar-05.39947131) | 6.5788e-05 | TDB |
period | 1354.237029702068 3.71 | 1.0399e-05 2.847e-08 | d yr |
n | .2658323410926077 | 2.0413e-09 | deg/d |
Q | 2.688671046127243 | 1.3764e-08 | au |
|
| | Orbit Determination Parameters
Additional Information
|